CZ-2D DEB, 44609

Orbit data source: Space-Track

CZ-2D DEB, 44609 is space debris in SSO originally from a launch on Mon, 09 Oct 2017 UTC launched from the Jiuquan Satellite Launch Center, China (JSC). Debris objects in space refer to the collection of defunct objects orbiting the Earth. Examples of debris include non-operational satellites, rocket bodies, and fragments generated from explosions, collisions, or faulty payload assembly.

Loading next visibility...
CZ-2D DEB details
Identifier
44609, 2017-060B
Orbit
SSO
Last TLE update1 day ago
Origin
Flag of CNCASC (CN / PRC)
ManufacturerUnknown
MissionSpacecraft
Bus & MotorUnknown
MassUnknown
Launch date (UTC)
2017-10-09 (7 years ago)
Launch vehicleUnknown
Launch site
Jiuquan Satellite Launch Center, China (JSC)
Object type
Payload
Rocket body
Debris
Shape & HBRUnknown
Radar Cross SectionSmall (<0.1 m²)

Expand to show TLE details & history

TLE from 1 day ago
0 CZ-2D DEB
1 44609U 17060B   24360.51426427  .00011160  00000-0  10736-2 0  9991
2 44609  97.5803  25.9595 0035331 322.0771  37.7961 14.92680068384595
Epoch: 2024-12-25T12:20Z
Definitive object data (Epoch: 2024-12-25T12:20:32.432Z)
Latitude-0.00004°
Longitude106.31745°
Altitude573.207 km
Speed7.585 km/s
True Right ascension01h 43m 50s
True Declination0° 00' 00"
Sunlit
Object was in daylight at TLE epoch
Visualization TLE readout
Latitude-69.93222°
Longitude-93.91106°
Altitude606.103 km
Speed7.56 km/s
Apparent Right ascension01h 30m 26s
Apparent Declination-76° 29' 17"
Sunlit
Object is in daylight
Visualization observer readout
Local Sidereal Time12:57:41
Azimuth183.188° SSW
Elevation-53.253°
Doppler factor1
Orbital elements
Apogee altitude611.2 km
Perigee altitude561.986 km
Semi-major axis6,964.73 km
Eccentricity0.0035331
Inclination97.5803°
RAAN25.9595°
Arg. of periapsis322.0771°
True anomaly38.04509°
Mean anomaly37.7961°
Eccentric anomaly37.92051°
Mean motion3.73411 °/min
BSTAR0.0010736
Orbital period96.41 mins
Loading maneuver chart data...
Loading historical data...
Loading historical data...
Loading historical data...
Loading historical data...
Loading historical data...
Loading historical data...
Loading historical data...
Other satellites on launch #60 in the year 2017 (2017-10-09 UTC)

CZ-2D DEB Visibility forecast

Observer location: undefined°, undefined

Span
Click to sort rows by Start time (UTC) header in descending order
Start Az.
Max El. time (UTC)
Max El. Az.
Max El.
End time (UTC)
End Az.
7 mins2024-12-26 14:38:58.825Z17.846° NNE2024-12-26 14:42:58.825Z140.757° SSE42.408°2024-12-26 14:45:58.825Z184.202° SSW
5 mins2024-12-27 01:29:58.825Z125.14° SE2024-12-27 01:31:58.825Z67.339° ENE32.865°2024-12-27 01:34:58.825Z7.318° NNE
|